User: anonymous   Login
Location: *
(10.4782°N, 67.2163°W)
Time: 21:57:24
(UTC+00:00)
Language:

Aureole 1 Rocket - Orbit

View from above orbital plane
View from above orbital plane
View from above satellite
View from above satellite

Ground track
Ground track

The orbit data is extracted from the following two-line orbital elements,

1 05730U 71119B   24197.47950706  .00008834  00000-0  51006-3 0  9993
2 05730  73.8919 209.4063 0613379 298.7409  55.3422 14.22256687569358
Epoch (UTC): 15 July 2024 11:30:29
Eccentricity: 0.0613379
inclination: 73.8919°
perigee height: 376 km
apogee height: 1259 km
right ascension of ascending node: 209.4063°
argument of perigee: 298.7409°
revolutions per day: 14.22256687
mean anomaly at epoch: 55.3422°
orbit number at epoch: 56935

The dashed part of the orbit path shows where the satellite is in the earth's shadow,  

DLR